This demonstration page uses our WeatherBlox Daily Observations layout. Learn more.

Left ArrowRight Arrow

Hourly Observations for December 26, 2019

Temp ( °F °C ) Dew Point ( °F °C ) Humidity (%) Winds ( mph kmh ) Pressure ( in mb ) Visibility ( mi km ) Precip ( " mm )
12:53 am 00:53 Clear 43 6.1 34 1.1 71 71 N 9 15 29.90 1013 10 16 0.00 0.00
1:53 am 01:53 Clear 43 6.1 33 0.6 68 68 NNW 6 9 29.91 1013 10 16 0.00 0.00
2:53 am 02:53 Clear 45 7.2 32 0 61 61 N 13 20 29.92 1013 10 16 0.00 0.00
3:53 am 03:53 Clear 44 6.7 32 0 63 63 N 9 15 29.92 1013 10 16 0.00 0.00
4:53 am 04:53 Clear 44 6.7 31 -0.6 60 60 N 8 13 29.93 1014 10 16 0.00 0.00
5:53 am 05:53 Clear 44 6.7 31 -0.6 60 60 NNW 8 13 29.94 1014 10 16 0.00 0.00
6:53 am 06:53 Clear 44 6.7 30 -1.1 58 58 N 10 17 29.94 1014 10 16 0.00 0.00
7:53 am 07:53 Sunny 44 6.7 30 -1.1 58 58 NNW 8 13 29.96 1015 10 16 0.00 0.00
8:53 am 08:53 Sunny 47 8.3 30 -1.1 52 52 N 8 13 30.00 1016 10 16 0.00 0.00
9:53 am 09:53 Sunny 50 10 30 -1.1 46 46 NNW 10 17 30.01 1016 10 16 0.00 0.00
10:53 am 10:53 Sunny 53 11.7 30 -1.1 41 41 N 12 19 30.00 1016 10 16 0.00 0.00
11:53 am 11:53 Sunny 55 12.8 29 -1.7 37 37 N 15 24 29.97 1015 10 16 0.00 0.00
12:53 pm 12:53 Sunny 56 13.3 29 -1.7 36 36 N 13 20 29.96 1014 10 16 0.00 0.00
1:53 pm 13:53 Sunny 57 13.9 29 -1.7 34 34 NNE 20 31 29.95 1014 10 16 0.00 0.00
2:53 pm 14:53 Sunny 56 13.3 29 -1.7 36 36 N 16 26 29.95 1014 10 16 0.00 0.00
3:53 pm 15:53 Sunny 56 13.3 27 -2.8 33 33 N 17 28 29.97 1015 10 16 0.00 0.00
4:53 pm 16:53 Clear 54 12.2 30 -1.1 40 40 N 10 17 29.98 1015 10 16 0.00 0.00
5:53 pm 17:53 Clear 53 11.7 30 -1.1 41 41 NNW 8 13 29.99 1016 10 16 0.00 0.00
6:53 pm 18:53 Clear 51 10.6 30 -1.1 44 44 N 9 15 30.01 1016 10 16 0.00 0.00
7:53 pm 19:53 Clear 49 9.4 30 -1.1 48 48 NNW 7 11 30.03 1017 10 16 0.00 0.00
8:53 pm 20:53 Clear 49 9.4 29 -1.7 46 46 NNW 7 11 30.02 1017 10 16 0.00 0.00
9:53 pm 21:53 Clear 47 8.3 29 -1.7 50 50 N 6 9 30.03 1017 10 16 0.00 0.00
10:53 pm 22:53 Clear 47 8.3 29 -1.7 50 50 N 8 13 30.04 1017 10 16 0.00 0.00
11:53 pm 23:53 Clear 45 7.2 29 -1.7 54 54 N 6 9 30.04 1017 10 16 0.00 0.00

Powered by AerisWeather